Regional Weather Roundup
Issued by NWS

Home | Current Version | Previous Version | Graphics & Text | Print | Product List | Glossary On
Versions: 1 2 3 4 5 6 7 8 9 10 11 12 13 14 15 16 17 18 19 20 21 22 23 24 25 26 27 28 29 30 31 32 33 34 35 36 37 38 39 40 41 42 43 44 45 46 47 48 49 50
000
ASUS43 KMKX 270521
RWRWI

WISCONSIN REGIONAL WEATHER ROUNDUP
NATIONAL WEATHER SERVICE MILWAUKEE/SULLIVAN WI
1200 AM CDT FRI MAR 27 2015

NOTE: "FAIR" INDICATES FEW OR NO CLOUDS BELOW 12,000 FEET WITH NO
SIGNIFICANT WEATHER AND/OR OBSTRUCTIONS TO VISIBILITY.

WIZ001-002-006>008-014>016-023>028-270600-
NORTHWEST WISCONSIN

CITY           SKY/WX    TMP DP  RH WIND       PRES   REMARKS
SUPERIOR ARPT  CLEAR     22   2  42 N8        30.26R WCI  13
ASHLAND        CLEAR     19   7  59 N9        30.22S WCI   8
HAYWARD        CLEAR     16   9  74 CALM      30.19R
SIREN          CLEAR     21   3  45 N5        30.22R WCI  15
CUMBERLAND     CLEAR     21   5  49 N5        30.18R WCI  15
RICE LAKE      CLEAR     21   7  55 N3        30.20R
CHETEK         CLEAR     22   7  52 N3        30.19R
LADYSMITH      CLEAR     20  10  64 CALM      30.18S
EAU CLAIRE     CLEAR     22   6  50 NE6       30.18R WCI  14
MENOMONIE      FAIR      24   8  51 N5        30.20R WCI  18
NEW RICHMOND   CLEAR     22   8  54 N5        30.21R WCI  15
OSCEOLA        CLEAR     24   5  45 N5        30.25R WCI  18
$$

WIZ003>005-009-010-017-018-270600-
NORTH CENTRAL WISCONSIN

CITY           SKY/WX    TMP DP  RH WIND       PRES   REMARKS
MANITOWISH WTR MOCLDY    11   6  81 CALM      30.11S
ARBOR VITAE    FAIR       9   3  79 CALM      30.11S
WOODRUFF       FAIR       9   3  79 CALM      30.11S
RHINELANDER    CLOUDY     7   3  84 NW5       30.11S WCI  -2
EAGLE RIVER    MOCLDY     9   5  82 CALM      30.10S
LAND O LAKES   FLURRIES   4   1  87 CALM      30.11S
PHILLIPS       MOCLDY    13   6  72 NW3       30.13S
TOMAHAWK       CLEAR      5   1  84 CALM      30.13S
MEDFORD        CLEAR     11   6  77 CALM      30.14S
MERRILL        CLEAR      9   5  82 CALM      30.13F
$$

WIZ029-030-035-036-043>047-270600-
CENTRAL WISCONSIN

CITY           SKY/WX    TMP DP  RH WIND       PRES   REMARKS
WAUSAU         CLEAR     17   6  62 N3        30.13S
MOSINEE        CLEAR     18   7  62 NE6       30.15S WCI   9
MARSHFIELD     CLEAR     19   6  57 NE9       30.15R WCI   8
STEVENS POINT  CLEAR     17   4  58 N7        30.16R WCI   7
WAUPACA        PTCLDY    24   8  51 N9        30.15R WCI  14
WAUTOMA        CLEAR     23   5  46 N14       30.15R WCI  11
WISC RAPIDS    CLEAR     20   5  52 N12       30.17R WCI   8
CAMP DOUGLAS   CLEAR     22  11  60 N8        30.15R WCI  13
$$

WIZ011>013-019>022-031-037>040-048>050-270600-
NORTHEAST WISCONSIN

CITY           SKY/WX    TMP DP  RH WIND       PRES   REMARKS
ANTIGO         CLEAR     11   4  73 CALM      30.11S
SHAWANO        CLEAR     20   5  51 NW3       30.16S
OCONTO         CLEAR     19   6  57 N7        30.16S WCI  10
STURGEON BAY   PTCLDY    18   5  57 N13       30.15S WCI   4
GREEN BAY      PTCLDY    22   6  50 N18G28    30.16R WCI   7
MANITOWOC      CLOUDY    23  14  68 N22       30.12R WCI   8
APPLETON       CLOUDY    23   9  54 N17       30.13R WCI   9
CLINTONVILLE   PTCLDY    21   5  49 N8G16     30.16R WCI  12
OSHKOSH        CLOUDY    26  12  55 N17       30.12R WCI  13
$$

WIZ032>034-041-042-053>061-270600-
SOUTHWEST WISCONSIN

CITY           SKY/WX    TMP DP  RH WIND       PRES   REMARKS
LA CROSSE      PTCLDY    30  13  49 N8        30.16R WCI  22
SPARTA         CLEAR     23  13  64 NE7       30.18R WCI  15
VIROQUA        CLOUDY    26  16  66 NE9       30.12R WCI  17
BOSCOBEL       CLOUDY    32  17  54 N5        30.14R WCI  27
PRAIRIE DU CHI CLOUDY    32  14  47 N6        30.14S WCI  26
PLATTEVILLE    CLOUDY    31  21  67 N8        30.11R WCI  23
$$

WIZ056-057-062-063-064-067-068-270600-
SOUTH CENTRAL WISCONSIN

CITY           SKY/WX    TMP DP  RH WIND       PRES   REMARKS
REEDSBURG      CLEAR     25  11  57 N8        30.13R WCI  16
BARABOO/DELLS  CLEAR     24  11  57 N10       30.13R WCI  14
LONE ROCK      MOCLDY    29  14  53 N9        30.14R WCI  20
MINERAL POINT  CLOUDY    30  18  59 N6        30.10S WCI  24
MADISON        MOCLDY    28  13  53 N10       30.11S WCI  19
MIDDLETON      CLEAR     28  17  63 N5        30.12R WCI  23
WATERTOWN      CLOUDY    27  16  63 N8        30.10S WCI  19
MONROE         MOCLDY    30  18  59 N13G18    30.10R WCI  20
JANESVILLE     CLOUDY    32  18  55 N8        30.10S WCI  25
$$

WIZ051-052-058>065-066-070>072-270600-
SOUTHEAST WISCONSIN

CITY           SKY/WX    TMP DP  RH WIND       PRES   REMARKS
MILWAUKEE      LGT SNOW  28  22  78 NE13G21   30.10R WCI  17
WAUKESHA       CLOUDY    28  18  64 N8G16     30.10R WCI  20
MILWAUKEE/TIMM CLOUDY    28  18  64 N10       30.10R WCI  19
RACINE         LGT SNOW  29  24  82 N14       30.11R WCI  18
BURLINGTON     FLURRIES  28  19  71 N8        30.09S WCI  19
KENOSHA        CLOUDY    31  19  61 N8        30.08S WCI  23
FOND DU LAC    CLOUDY    27  12  53 N13       30.12R WCI  16
SHEBOYGAN      CLOUDY    25  16  68 N10       30.11R WCI  15
WEST BEND      FLURRIES  27  19  74 N8        30.10R WCI  18
JUNEAU         CLOUDY    26  14  61 N8        30.11S WCI  18
$$

LSZ147-162-270600-
LAKE SUPERIOR

STATION/POSITION TIME  TEMP    WIND        PRES    WAVE
                       AIR SEA DIR/SP/G            HT/PER
                 (UTC) (F)     (DEG/KT/KT) (MB)    (FT/S)
DEVILS ISLAND    0500   22      10/ 18/ 21 1025.4R
PORT WING        0440   24      10/ 20/ 23 1024.4R
SAXON HARBOR     0409   27      10/ 20/ 25 1022.4R
$$

LMZ867-665-643>646-270600-
LAKE MICHIGAN

STATION/POSITION TIME  TEMP    WIND        PRES    WAVE
                       AIR SEA DIR/SP/G            HT/PER
                 (UTC) (F)     (DEG/KT/KT) (MB)    (FT/S)
NORTHPORT PIER   0509   21     340/ 15     1020.0S
SISTER BAY       0332   20      20/ 23/ 29   N/A
KEWAUNEE LAKESHO 0400          350/ 12/ 19 1019.0R
SHEBOYGAN LAKESH 0500   26     330/ 17/ 21 1020.7R
PORT WASHINGTON  0400   28     360/  6/  9 1020.0R
MILWAUKEE LAKESH 0500   28      30/ 16/ 19   N/A
KENOSHA   LAKESH 0500   30      20/ 16/ 21 1019.0R
$$

TC  - TEMPERATURE IN CELSIUS
VSB - VISIBILITY IN STATUTE MILES
WCI - WIND CHILL INDEX
HX  - HEAT INDEX



USA.gov is the U.S. government's official web portal to all federal, state and local government web resources and services.